Location: Leipzig
(51.3397°N, 12.3731°E)
Time: 18:20:21
(UTC+01:00)

ARIANE 6 FM1 Upper Stage - Pass Details

Date: 13 December 2025
Orbit: 522 x 610 km, 62.0° (Epoch: 19 January)

Event Time Altitude Azimuth Distance (km) Brightness Sun altitude
Rises 05:55:42 0° 166° (SSE) 2,685 6.5 -19.2°
Reaches altitude 10° 05:59:51 10° 124° (SE) 1,781 6.3 -18.6°
Maximum altitude 06:00:29 10° 115° (ESE) 1,759 6.4 -18.5°
Drops below altitude 10° 06:01:07 10° 106° (ESE) 1,778 6.5 -18.4°
Sets 06:05:13 0° 64° (ENE) 2,662 6.9 -17.8°
